H1 CPF 2 NER 2023 1 24 9 024 01 glonass107 H2 0706501 9107 32393 2023 1 24 0 0 0 2023 1 27 23 45 0 900 1 1 0 0 0 1 H9 10 0 59968 0.00000 0 2048276.029 -22167488.258 12437486.150 10 0 59968 900.00000 0 2383780.952 -23495036.355 9629300.322 10 0 59968 1800.00000 0 2529975.207 -24498060.736 6633947.675 10 0 59968 2700.00000 0 2529754.935 -25139428.394 3509685.675 10 0 59968 3600.00000 0 2432358.419 -25393559.029 317243.331 10 0 59968 4500.00000 0 2291029.503 -25247484.254 -2881363.166 10 0 59968 5400.00000 0 2160515.739 -24701396.226 -6024037.210 10 0 59968 6300.00000 0 2094507.983 -23768663.510 -9049807.106 10 0 59968 7200.00000 0 2143130.260 -22475314.355 -11900006.323 10 0 59968 8100.00000 0 2350586.272 -20859009.897 -14519405.897 10 0 59968 9000.00000 0 2753061.929 -18967550.882 -16857277.393 10 0 59968 9900.00000 0 3376972.259 -16856980.797 -18868366.482 10 0 59968 10800.00000 0 4237626.375 -14589364.682 -20513759.208 10 0 59968 11700.00000 0 5338366.589 -12230335.935 -21761625.263 10 0 59968 12600.00000 0 6670217.958 -9846512.636 -22587824.984 10 0 59968 13500.00000 0 8212063.409 -7502889.846 -22976369.429 10 0 59968 14400.00000 0 9931337.899 -5260314.998 -22919725.468 10 0 59968 15300.00000 0 11785213.713 -3173149.841 -22418960.571 10 0 59968 16200.00000 0 13722228.834 -1287214.592 -21483724.667 10 0 59968 17100.00000 0 15684292.018 361901.693 -20132069.229 10 0 59968 18000.00000 0 17608982.603 1750095.468 -18390106.478 10 0 59968 18900.00000 0 19432050.616 2865516.538 -16291514.389 10 0 59968 19800.00000 0 21090014.219 3708818.108 -13876895.933 10 0 59968 20700.00000 0 22522746.923 4292879.038 -11193003.732 10 0 59968 21600.00000 0 23675946.954 4642010.205 -8291843.984 10 0 59968 22500.00000 0 24503385.509 4790678.391 -5229675.958 10 0 59968 23400.00000 0 24968839.253 4781801.429 -2065925.750 10 0 59968 24300.00000 0 25047625.281 4664686.556 1137965.057 10 0 59968 25200.00000 0 24727672.954 4492699.245 4319733.558 10 0 59968 26100.00000 0 24010086.374 4320761.484 7417509.020 10 0 59968 27000.00000 0 22909172.526 4202786.038 10371021.564 10 0 59968 27900.00000 0 21451932.698 4189156.237 13122781.835 10 0 59968 28800.00000 0 19677037.494 4324359.121 15619207.799 10 0 59968 29700.00000 0 17633327.708 4644873.481 17811675.942 10 0 59968 30600.00000 0 15377903.374 5177403.545 19657475.638 10 0 59968 31500.00000 0 12973880.896 5937534.450 21120647.479 10 0 59968 32400.00000 0 10487912.063 6928867.668 22172688.788 10 0 59968 33300.00000 0 7987568.795 8142674.212 22793112.326 10 0 59968 34200.00000 0 5538703.051 9558081.352 22969847.178 10 0 59968 35100.00000 0 3202892.177 11142785.967 22699474.002 10 0 59968 36000.00000 0 1035076.223 12854265.278 21987290.178 10 0 59968 36900.00000 0 -918514.482 14641434.607 20847203.713 10 0 59968 37800.00000 0 -2622055.612 16446682.850 19301458.149 10 0 59968 38700.00000 0 -4051379.072 18208200.324 17380194.047 10 0 59968 39600.00000 0 -5194726.180 19862501.214 15120855.839 10 0 59968 40500.00000 0 -6052973.825 21347034.559 12567455.939 10 0 59968 41400.00000 0 -6639325.952 22602773.988 9769710.794 10 0 59968 42300.00000 0 -6978485.312 23576677.204 6782066.238 10 0 59968 43200.00000 0 -7105342.316 24223911.824 3662631.664 10 0 59968 44100.00000 0 -7063238.244 24509754.098 472044.351 10 0 59968 45000.00000 0 -6901877.838 24411080.904 -2727713.273 10 0 59968 45900.00000 0 -6674980.961 23917392.739 -5874519.933 10 0 59968 46800.00000 0 -6437773.735 23031325.258 -8907321.501 10 0 59968 47700.00000 0 -6244425.990 21768628.497 -11767313.047 10 0 59968 48600.00000 0 -6145543.708 20157615.240 -14399074.084 10 0 59968 49500.00000 0 -6185822.466 18238102.146 -16751635.386 10 0 59968 50400.00000 0 -6401960.703 16059888.175 -18779457.320 10 0 59968 51300.00000 0 -6820920.455 13680833.903 -20443301.681 10 0 59968 52200.00000 0 -7458608.433 11164621.429 -21710981.226 10 0 59968 53100.00000 0 -8319032.713 8578287.481 -22557973.504 10 0 59968 54000.00000 0 -9393970.439 5989631.283 -22967888.198 10 0 59968 54900.00000 0 -10663160.878 3464603.516 -22932779.806 10 0 59968 55800.00000 0 -12095016.420 1064783.329 -22453300.201 10 0 59968 56700.00000 0 -13647822.876 -1154953.478 -21538688.327 10 0 59968 57600.00000 0 -15271380.205 -3148479.845 -20206597.047 10 0 59968 58500.00000 0 -16909016.585 -4880092.792 -18482759.927 10 0 59968 59400.00000 0 -18499893.120 -6325750.234 -16400503.488 10 0 59968 60300.00000 0 -19981504.209 -7473818.659 -14000113.235 10 0 59968 61200.00000 0 -21292269.998 -8325301.061 -11328064.517 10 0 59968 62100.00000 0 -22374113.042 -8893536.010 -8436131.933 10 0 59968 63000.00000 0 -23174911.402 -9203380.664 -5380393.456 10 0 59968 63900.00000 0 -23650724.970 -9289912.124 -2220147.884 10 0 59968 64800.00000 0 -23767700.808 -9196701.896 983233.839 10 0 59968 65700.00000 0 -23503576.333 -8973736.383 4167501.244 10 0 59968 66600.00000 0 -22848715.784 -8675071.545 7270737.406 10 0 59968 67500.00000 0 -21806634.884 -8356321.402 10232568.382 10 0 59968 68400.00000 0 -20393990.130 -8072087.386 12995344.768 10 0 59968 69300.00000 0 -18640031.779 -7873438.244 15505271.522 10 0 59968 70200.00000 0 -16585542.329 -7805548.286 17713463.232 10 0 59968 71100.00000 0 -14281304.080 -7905595.053 19576903.570 10 0 59968 72000.00000 0 -11786159.381 -8201006.568 21059289.573 10 0 59968 72900.00000 0 -9164744.357 -8708133.395 22131743.903 10 0 59968 73800.00000 0 -6484990.645 -9431402.687 22773380.938 10 0 59968 74700.00000 0 -3815499.438 -10362990.867 22971715.517 10 0 59968 75600.00000 0 -1222897.368 -11483029.535 22722906.407 10 0 59968 76500.00000 0 1230715.623 -12760336.518 22031829.806 10 0 59968 77400.00000 0 3490120.240 -14153641.713 20911981.603 10 0 59968 78300.00000 0 5509035.922 -15613256.331 19385210.443 10 0 59968 79200.00000 0 7251797.992 -17083115.354 17481287.020 10 0 59968 80100.00000 0 8694584.839 -18503107.154 15237318.210 10 0 59968 81000.00000 0 9826145.240 -19811592.026 12697017.792 10 0 59968 81900.00000 0 10647997.021 -20948003.345 9909848.320 10 0 59968 82800.00000 0 11174090.597 -21855421.560 6930051.367 10 0 59968 83700.00000 0 11429953.566 -22483012.402 3815585.596 10 0 59968 84600.00000 0 11451354.362 -22788226.515 626993.895 10 0 59968 85500.00000 0 11282543.217 -22738667.870 -2573777.682 10 0 59969 0.00000 0 10974146.384 -22313552.524 -5724585.418 10 0 59969 900.00000 0 10580803.744 -21504696.349 -8764295.687 10 0 59969 1800.00000 0 10158651.006 -20316991.208 -11633967.069 10 0 59969 2700.00000 0 9762752.907 -18768349.235 -14277989.559 10 0 59969 3600.00000 0 9444596.341 -16889118.311 -16645154.927 10 0 59969 4500.00000 0 9249748.902 -14720993.237 -18689639.784 10 0 59969 5400.00000 0 9215781.145 -12315468.013 -20371882.935 10 0 59969 6300.00000 0 9370539.505 -9731893.366 -21659341.143 10 0 59969 7200.00000 0 9730842.002 -7035219.736 -22527109.757 10 0 59969 8100.00000 0 10301651.120 -4293518.477 -22958397.311 10 0 59969 9000.00000 0 11075758.486 -1575382.907 -22944845.802 10 0 59969 9900.00000 0 12033994.766 1052684.486 -22486691.044 10 0 59969 10800.00000 0 13145956.617 3528791.917 -21592760.229 10 0 59969 11700.00000 0 14371221.161 5797982.367 -20280306.581 10 0 59969 12600.00000 0 15660998.330 7814266.834 -18574683.734 10 0 59969 13500.00000 0 16960153.206 9542283.578 -16508865.241 10 0 59969 14400.00000 0 18209514.924 10958515.350 -14122817.392 10 0 59969 15300.00000 0 19348376.478 12052014.561 -11462736.268 10 0 59969 16200.00000 0 20317081.343 12824606.585 -8580162.622 10 0 59969 17100.00000 0 21059588.725 13290562.896 -5530990.660 10 0 59969 18000.00000 0 21525909.511 13475757.878 -2374389.226 10 0 59969 18900.00000 0 21674309.943 13416344.767 828344.166 10 0 59969 19800.00000 0 21473189.251 13157006.584 4014974.305 10 0 59969 20700.00000 0 20902550.858 12748856.022 7123540.862 10 0 59969 21600.00000 0 19955003.649 12247073.345 10093568.490 10 0 59969 22500.00000 0 18636249.447 11708382.674 12867250.213 10 0 59969 23400.00000 0 16965034.548 11188474.142 15390580.222 10 0 59969 24300.00000 0 14972565.823 10739481.819 17614413.203 10 0 59969 25200.00000 0 12701414.567 10407625.047 19495428.832 10 0 59969 26100.00000 0 10203953.055 10231113.901 20996982.018 10 0 59969 27000.00000 0 7540388.460 10238408.250 22089821.873 10 0 59969 27900.00000 0 4776475.860 10446904.778 22752665.148 10 0 59969 28800.00000 0 1981005.508 10862108.140 22972612.823 10 0 59969 29700.00000 0 -776830.963 11477321.719 22745401.719 10 0 59969 30600.00000 0 -3430085.798 12273871.444 22075486.343 10 0 59969 31500.00000 0 -5916601.770 13221853.380 20975949.462 10 0 59969 32400.00000 0 -8181354.460 14281373.635 19468243.351 10 0 59969 33300.00000 0 -10178493.080 15404228.170 17581766.908 10 0 59969 34200.00000 0 -11872995.499 16535951.471 15353287.140 10 0 59969 35100.00000 0 -13241869.470 17618147.324 12826216.591 10 0 59969 36000.00000 0 -14274851.225 18591003.028 10049761.112 10 0 59969 36900.00000 0 -14974573.851 19395880.529 7077955.109 10 0 59969 37800.00000 0 -15356200.231 19977874.794 3968603.570 10 0 59969 38700.00000 0 -15446537.973 20288231.171 782152.078 10 0 59969 39600.00000 0 -15282675.498 20286519.547 -2419492.541 10 0 59969 40500.00000 0 -14910198.613 19942473.598 -5574167.432 10 0 59969 41400.00000 0 -14381064.305 19237417.677 -8620660.941 10 0 59969 42300.00000 0 -13751222.721 18165221.437 -11499898.151 10 0 59969 43200.00000 0 -13078088.461 16732742.277 -14156081.734 10 0 59969 44100.00000 0 -12417968.214 14959737.177 -16537766.379 10 0 59969 45000.00000 0 -11823553.158 12878247.666 -18598846.540 10 0 59969 45900.00000 0 -11341581.328 10531483.466 -20299439.313 10 0 59969 46800.00000 0 -11010767.687 7972250.941 -21606646.403 10 0 59969 47700.00000 0 -10860088.163 5260991.089 -22495181.545 10 0 59969 48600.00000 0 -10907489.000 2463507.613 -22947852.365 10 0 59969 49500.00000 0 -11159074.987 -351521.934 -22955888.238 10 0 59969 50400.00000 0 -11608810.364 -3115150.180 -22519108.421 10 0 59969 51300.00000 0 -12238744.969 -5760772.823 -21645927.476 10 0 59969 52200.00000 0 -13019756.606 -8226643.718 -20353197.721 10 0 59969 53100.00000 0 -13912779.243 -10458189.350 -18665891.212 10 0 59969 54000.00000 0 -14870466.574 -12410027.975 -16616626.554 10 0 59969 54900.00000 0 -15839222.224 -14047610.559 -14245048.559 10 0 59969 55800.00000 0 -16761512.438 -15348415.953 -11597071.565 10 0 59969 56700.00000 0 -17578364.911 -16302650.918 -8723999.864 10 0 59969 57600.00000 0 -18231949.227 -16913425.959 -5681541.208 10 0 59969 58500.00000 0 -18668130.359 -17196399.641 -2528731.769 10 0 59969 59400.00000 0 -18838887.312 -17178906.266 673207.072 10 0 59969 60300.00000 0 -18704494.161 -16898603.555 3862058.050 10 0 59969 61200.00000 0 -18235370.262 -16401697.335 6975820.072 10 0 59969 62100.00000 0 -17413520.110 -15740818.310 9953918.962 10 0 59969 63000.00000 0 -16233500.397 -14972640.893 12738392.641 10 0 59969 63900.00000 0 -14702871.740 -14155345.237 15275026.829 10 0 59969 64800.00000 0 -12842114.292 -13346030.407 17514418.359 10 0 59969 65700.00000 0 -10684009.151 -12598188.728 19412944.663 10 0 59969 66600.00000 0 -8272510.178 -11959348.842 20933619.876 10 0 59969 67500.00000 0 -5661152.327 -11468987.727 22046820.488 10 0 59969 68400.00000 0 -2911062.237 -11156800.494 22730866.108 10 0 59969 69300.00000 0 -88653.638 -11041401.414 22972443.873 10 0 59969 70200.00000 0 2736896.697 -11129511.313 22766868.260 10 0 59969 71100.00000 0 5496287.466 -11415665.688 22118171.286 10 0 59969 72000.00000 0 8122736.087 -11882455.799 21039021.453 10 0 59969 72900.00000 0 10554516.796 -12501292.305 19550473.204 10 0 59969 73800.00000 0 12737288.234 -13233658.869 17681551.904 10 0 59969 74700.00000 0 14626113.966 -14032802.313 15468682.690 10 0 59969 75600.00000 0 16187092.451 -14845787.422 12954974.603 10 0 59969 76500.00000 0 17398529.428 -15615828.990 10189374.279 10 0 59969 77400.00000 0 18251604.999 -16284801.974 7225706.209 10 0 59969 78300.00000 0 18750509.080 -16795823.133 4121618.772 10 0 59969 79200.00000 0 18912041.327 -17095794.549 937457.190 10 0 59969 80100.00000 0 18764694.198 -17137801.204 -2264914.019 10 0 59969 81000.00000 0 18347259.582 -16883261.110 -5423315.604 10 0 59969 81900.00000 0 17707019.312 -16303737.152 -8476461.314 10 0 59969 82800.00000 0 16897597.202 -15382334.253 -11365145.071 10 0 59969 83700.00000 0 15976564.085 -14114623.109 -14033384.562 10 0 59969 84600.00000 0 15002897.346 -12509051.692 -16429499.403 10 0 59969 85500.00000 0 14034402.010 -10586827.216 -18507103.563 10 0 59970 0.00000 0 13125201.683 -8381273.480 -20225993.581 10 0 59970 900.00000 0 12323403.662 -5936688.725 -21552917.316 10 0 59970 1800.00000 0 11669036.635 -3306753.881 -22462207.223 10 0 59970 2700.00000 0 11192344.872 -552552.463 -22936270.103 10 0 59970 3600.00000 0 10912510.748 2259714.086 -22965922.392 10 0 59970 4500.00000 0 10836857.898 5061223.421 -22550566.089 10 0 59970 5400.00000 0 10960567.995 7783139.640 -21698202.075 10 0 59970 6300.00000 0 11266922.922 10359224.561 -20425280.395 10 0 59970 7200.00000 0 11728062.416 12728346.170 -18756389.886 10 0 59970 8100.00000 0 12306225.965 14836781.562 -16723792.312 10 0 59970 9000.00000 0 12955427.588 16640219.808 -14366808.883 10 0 59970 9900.00000 0 13623493.988 18105382.150 -11731069.851 10 0 59970 10800.00000 0 14254381.115 19211192.493 -8867640.512 10 0 59970 11700.00000 0 14790672.192 19949449.451 -5832039.454 10 0 59970 12600.00000 0 15176152.159 20324971.784 -2683167.350 10 0 59970 13500.00000 0 15358349.776 20355210.952 517833.440 10 0 59970 14400.00000 0 15290939.466 20069346.841 3708766.457 10 0 59970 15300.00000 0 14935900.481 19506904.557 6827592.597 10 0 59970 16200.00000 0 14265340.786 18715950.512 9813641.425 10 0 59970 17100.00000 0 13262907.009 17750944.014 12608798.094 10 0 59970 18000.00000 0 11924719.132 16670335.315 15158641.922 10 0 59970 18900.00000 0 10259788.642 15534011.949 17413513.682 10 0 59970 19800.00000 0 8289900.737 14400701.732 19329490.053 10 0 59970 20700.00000 0 6048963.834 13325442.608 20869245.611 10 0 59970 21600.00000 0 3581852.292 12357226.684 22002785.144 10 0 59970 22500.00000 0 942789.613 11536918.233 22708031.715 10 0 59970 23400.00000 0 -1806661.133 10895533.787 22971258.880 10 0 59970 24300.00000 0 -4599916.341 10452956.884 22787358.640 10 0 59970 25200.00000 0 -7367904.096 10217141.525 22159939.967 10 0 59970 26100.00000 0 -10041704.235 10183837.601 21101256.095 10 0 59970 27000.00000 0 -12555186.469 10336849.323 19631962.166 10 0 59970 27900.00000 0 -14847536.885 10648815.100 17780708.095 10 0 59970 28800.00000 0 -16865567.742 11082475.150 15583574.832 10 0 59970 29700.00000 0 -18565714.755 11592372.467 13083365.273 10 0 59970 30600.00000 0 -19915639.171 12126914.354 10328763.972 10 0 59970 31500.00000 0 -20895368.594 12630706.545 7373382.505 10 0 59970 32400.00000 0 -21497930.110 13047060.326 4274709.612 10 0 59970 33300.00000 0 -21729450.605 13320565.938 1092987.149 10 0 59970 34200.00000 0 -21608721.738 13399622.781 -2109965.592 10 0 59970 35100.00000 0 -21166249.529 13238819.035 -5271955.764 10 0 59970 36000.00000 0 -20442830.181 12801059.839 -8331625.184 10 0 59970 36900.00000 0 -19487713.503 12059354.068 -11229639.109 10 0 59970 37800.00000 0 -18356432.356 10998184.307 -13909832.516 10 0 59970 38700.00000 0 -17108390.161 9614402.359 -16320291.967 10 0 59970 39600.00000 0 -15804308.229 7917612.558 -18414352.639 10 0 59970 40500.00000 0 -14503639.968 5930026.587 -20151492.120 10 0 59970 41400.00000 0 -13262059.940 3685795.403 -21498104.729 10 0 59970 42300.00000 0 -12129132.179 1229845.447 -22428142.486 10 0 59970 43200.00000 0 -11146254.340 -1383733.422 -22923611.453 10 0 59970 44100.00000 0 -10344962.588 -4093682.536 -22974914.778 10 0 59970 45000.00000 0 -9745667.073 -6833870.227 -22581036.456 10 0 59970 45900.00000 0 -9356870.003 -9535795.254 -21749562.537 10 0 59970 46800.00000 0 -9174898.419 -12131195.728 -20496539.267 10 0 59970 47700.00000 0 -9184162.582 -14554656.910 -18846170.412 10 0 59970 48600.00000 0 -9357929.221 -16746111.075 -16830358.746 10 0 59970 49500.00000 0 -9659577.531 -18653126.773 -14488099.516 10 0 59970 50400.00000 0 -10044285.672 -20232893.005 -11864736.381 10 0 59970 51300.00000 0 -10461077.434 -21453816.119 -9011093.049 10 0 59970 52200.00000 0 -10855143.355 -22296662.874 -5982496.355 10 0 59970 53100.00000 0 -11170338.696 -22755201.708 -2837708.919 10 0 59970 54000.00000 0 -11351752.783 -22836314.995 362208.409 10 0 59970 54900.00000 0 -11348240.761 -22559577.182 3555082.386 10 0 59970 55800.00000 0 -11114809.894 -21956316.117 6678838.242 10 0 59970 56700.00000 0 -10614758.340 -21068196.789 9672711.553 10 0 59970 57600.00000 0 -9821474.460 -19945387.004 12478436.878 10 0 59970 58500.00000 0 -8719818.901 -18644382.351 15041389.190 10 0 59970 59400.00000 0 -7307029.246 -17225582.387 17311655.075 10 0 59970 60300.00000 0 -5593107.199 -15750720.557 19245012.108 10 0 59970 61200.00000 0 -3600670.209 -14280256.614 20803796.678 10 0 59970 62100.00000 0 -1364272.108 -12870841.813 21957642.898 10 0 59970 63000.00000 0 1070780.128 -11572963.941 22684077.964 10 0 59970 63900.00000 0 3650065.102 -10428871.530 22968962.153 10 0 59970 64800.00000 0 6312073.519 -9470864.587 22806764.929 10 0 59970 65700.00000 0 8990538.518 -8720023.489 22200671.810 10 0 59970 66600.00000 0 11616972.899 -8185429.071 21162520.020 10 0 59970 67500.00000 0 14123307.697 -7863906.007 19712564.348 10 0 59970 68400.00000 0 16444522.233 -7740299.356 17879077.906 10 0 59970 69300.00000 0 18521156.031 -7788271.553 15697795.808 10 0 59970 70200.00000 0 20301598.068 -7971585.043 13211212.852 10 0 59970 71100.00000 0 21744058.108 -8245815.170 10467749.244 10 0 59970 72000.00000 0 22818138.307 -8560419.741 7520801.074 10 0 59970 72900.00000 0 23505940.195 -8861076.604 4427694.585 10 0 59970 73800.00000 0 23802661.758 -9092189.338 1248565.191 10 0 59970 74700.00000 0 23716660.917 -9199454.167 -1954816.262 10 0 59970 75600.00000 0 23268984.188 -9132378.837 -5120246.584 10 0 59970 76500.00000 0 22492381.858 -8846646.461 -8186298.810 10 0 59970 77400.00000 0 21429852.421 -8306224.164 -11093512.492 10 0 59970 78300.00000 0 20132778.660 -7485127.389 -13785542.572 10 0 59970 79200.00000 0 18658734.492 -6368765.445 -16210244.877 10 0 59970 80100.00000 0 17069055.125 -4954811.596 -18320677.742 10 0 59970 81000.00000 0 15426272.411 -3253560.970 -20076001.230 10 0 59970 81900.00000 0 13791522.433 -1287760.918 -21442257.596 10 0 59970 82800.00000 0 12222033.032 908079.736 -22393019.022 10 0 59970 83700.00000 0 10768795.224 3288874.646 -22909891.195 10 0 59970 84600.00000 0 9474514.527 5800589.061 -22982863.947 10 0 59970 85500.00000 0 8371926.474 8382247.759 -22610502.827 10 0 59971 0.00000 0 7482545.507 10968239.845 -21799978.320 10 0 59971 900.00000 0 6815898.078 13490827.806 -20566931.538 10 0 59971 1800.00000 0 6369272.405 15882754.832 -18935179.678 10 0 59971 2700.00000 0 6127993.426 18079848.235 -16936264.666 10 0 59971 3600.00000 0 6066212.509 20023508.489 -14608853.618 10 0 59971 4500.00000 0 6148178.465 21662982.548 -11998001.159 10 0 59971 5400.00000 0 6329936.814 22957326.923 -9154286.738 10 0 59971 6300.00000 0 6561386.102 23876978.697 -6132842.558 10 0 59971 7200.00000 0 6788604.802 24404868.497 -2992290.164 10 0 59971 8100.00000 0 6956350.580 24537028.354 206394.183 10 0 59971 9000.00000 0 7010626.021 24282668.333 3401063.531 10 0 59971 9900.00000 0 6901201.651 23663718.037 6529610.406 10 0 59971 10800.00000 0 6583988.529 22713851.699 9531179.171 10 0 59971 11700.00000 0 6023158.681 21477037.458 12347356.321 10 0 59971 12600.00000 0 5192922.119 20005671.620 14923314.728 10 0 59971 13500.00000 0 4078883.598 18358376.434 17208888.734 10 0 59971 14400.00000 0 2678919.948 16597554.205 19159558.450 10 0 59971 15300.00000 0 1003539.204 14786800.920 20737323.398 10 0 59971 16200.00000 0 -924295.327 12988288.450 21911448.048 10 0 59971 17100.00000 0 -3069870.230 11260225.647 22659064.422 10 0 59971 18000.00000 0 -5387928.082 9654505.126 22965619.877 10 0 59971 18900.00000 0 -7824325.020 8214634.538 22825161.316 10 0 59971 19800.00000 0 -10318071.233 6974038.894 22240450.355 10 0 59971 20700.00000 0 -12803669.562 5954804.716 21222907.314 10 0 59971 21600.00000 0 -15213654.879 5166917.923 19792385.254 10 0 59971 22500.00000 0 -17481228.332 4608026.446 17976778.643 10 0 59971 23400.00000 0 -19542876.526 4263736.272 15811474.469 10 0 59971 24300.00000 0 -21340866.259 4108427.031 13338656.764 10 0 59971 25200.00000 0 -22825510.724 4106551.217 10606478.417 10 0 59971 26100.00000 0 -23957112.604 4214360.709 7668116.869 10 0 59971 27000.00000 0 -24707503.236 4381986.137 4580732.608 10 0 59971 27900.00000 0 -25061114.087 4555779.889 1404351.344 10 0 59971 28800.00000 0 -25015536.517 4680822.440 -1799307.720 10 0 59971 29700.00000 0 -24581547.531 4703485.036 -4968034.125 10 0 59971 30600.00000 0 -23782601.675 4573939.639 -8040335.051 10 0 59971 31500.00000 0 -22653811.628 4248509.549 -10956627.082 10 0 59971 32400.00000 0 -21240461.457 3691761.167 -13660387.633 10 0 59971 33300.00000 0 -19596115.747 2878248.564 -16099244.035 10 0 59971 34200.00000 0 -17780404.446 1793837.311 -18225979.665 10 0 59971 35100.00000 0 -15856576.331 436551.846 -19999438.529 10 0 59971 36000.00000 0 -13888923.106 -1183089.442 -21385311.820 10 0 59971 36900.00000 0 -11940181.092 -3042265.891 -22356792.370 10 0 59971 37800.00000 0 -10069017.903 -5106565.749 -22895085.457 10 0 59971 38700.00000 0 -8327707.583 -7331188.288 -22989767.044 10 0 59971 39600.00000 0 -6760089.767 -9662588.082 -22638983.204 10 0 59971 40500.00000 0 -5399896.455 -12040494.603 -21849487.211 10 0 59971 41400.00000 0 -4269514.889 -14400224.863 -20636513.488 10 0 59971 42300.00000 0 -3379237.105 -16675194.589 -19023490.400 10 0 59971 43200.00000 0 -2727026.698 -18799525.064 -17041596.616 10 0 59971 44100.00000 0 -2298812.103 -20710638.490 -14729168.543 10 0 59971 45000.00000 0 -2069293.903 -22351734.632 -12130969.095 10 0 59971 45900.00000 0 -2003232.307 -23674046.060 -9297330.759 10 0 59971 46800.00000 0 -2057160.746 -24638777.855 -6283188.444 10 0 59971 47700.00000 0 -2181453.563 -25218650.401 -3147020.051 10 0 59971 48600.00000 0 -2322660.522 -25398980.012 50285.214 10 0 59971 49500.00000 0 -2426009.303 -25178251.290 3246609.014 10 0 59971 50400.00000 0 -2437969.653 -24568156.244 6379813.373 10 0 59971 51300.00000 0 -2308769.857 -23593097.686 9388953.519 10 0 59971 52200.00000 0 -1994757.895 -22289176.985 12215469.844 10 0 59971 53100.00000 0 -1460505.972 -20702708.209 14804334.922 10 0 59971 54000.00000 0 -680567.820 -18888320.777 17105132.496 10 0 59971 54900.00000 0 359187.220 -16906730.249 19073046.639 10 0 59971 55800.00000 0 1660721.372 -14822270.954 20669741.189 10 0 59971 56700.00000 0 3213494.494 -12700294.201 21864111.859 10 0 59971 57600.00000 0 4994664.686 -10604541.407 22632896.091 10 0 59971 58500.00000 0 6969816.336 -8594602.408 22961128.588 10 0 59971 59400.00000 0 9094186.228 -6723565.442 22842433.641 10 0 59971 60300.00000 0 11314337.176 -5035957.011 22279148.621 10 0 59971 61200.00000 0 13570209.735 -3566057.462 21282276.305 10 0 59971 62100.00000 0 15797466.477 -2336662.081 19871267.129 10 0 59971 63000.00000 0 17930030.992 -1358338.578 18073635.751 10 0 59971 63900.00000 0 19902715.377 -629210.813 15924419.611 10 0 59971 64800.00000 0 21653826.268 -135276.291 13465490.287 10 0 59971 65700.00000 0 23127640.269 148757.622 10744731.378 10 0 59971 66600.00000 0 24276645.146 258155.776 7815099.417 10 0 59971 67500.00000 0 25063453.008 236412.940 4733586.607 10 0 59971 68400.00000 0 25462305.666 133162.377 1560106.176 10 0 59971 69300.00000 0 25460109.573 1825.153 -1643677.270 10 0 59971 70200.00000 0 25056957.709 -102899.170 -4815549.041 10 0 59971 71100.00000 0 24266117.460 -127593.389 -7893953.489 10 0 59971 72000.00000 0 23113486.013 -22626.131 -10819187.118 10 0 59971 72900.00000 0 21636537.062 255508.233 -13534552.488 10 0 59971 73800.00000 0 19882803.809 742112.141 -15987450.804 10 0 59971 74700.00000 0 17907962.328 1462557.464 -18130392.544 10 0 59971 75600.00000 0 15773595.636 2430980.852 -19921907.375 10 0 59971 76500.00000 0 13544731.688 3649456.703 -21327336.821 10 0 59971 77400.00000 0 11287257.402 5107682.631 -22319495.439 10 0 59971 78300.00000 0 9065315.495 6783191.118 -22879188.844 10 0 59971 79200.00000 0 6938791.251 8642079.290 -22995579.550 10 0 59971 80100.00000 0 4960992.344 10640227.499 -22666394.216 10 0 59971 81000.00000 0 3176616.718 12724957.254 -21897968.677 10 0 59971 81900.00000 0 1620091.620 14837061.054 -20705129.817 10 0 59971 82800.00000 0 314351.667 16913121.186 -19110916.118 10 0 59971 83700.00000 0 -729894.184 18888022.481 -17146141.495 10 0 59971 84600.00000 0 -1514376.919 20697555.700 -14848809.778 10 0 59971 85500.00000 0 -2052954.511 22281003.982 -12263389.966 99